Location: Prague
(50.0830°N, 14.4670°E)
Time: 03:32:41
(UTC+02:00)

X-37B - Pass Details

Date: 26 September 2021
Orbit: 385 x 389 km, 45.0° (Epoch: 13 October)

Event Time Altitude Azimuth Distance (km) Brightness Sun altitude
Exits shadow 04:45:15 19° 144° (SE) 981 2.7 -21.0°
Drops below altitude 10° 04:47:06 10° 110° (ESE) 1,414 4.0 -20.7°
Sets 04:49:29 0° 94° (E) 2,271 5.5 -20.4°
